Wind_Speed
26 26 25 24 22 20 19 18 19 20 21 22 22 24 25 25 25 25 25 23 22 22 21 20 19 19 18 17 17 17 17 18 20 21 22 23 24 24 24 24 23 23 22 21 20 19 19 19 19 19 18 18 18 18 19 19 19 19 19 19 18 18 18 18 19 20 20 18 16 15 16 19 22 23 24 25 25 24 24 24 23 24 24 24 25
27 27 25 24 23 22 20 20 20 21 22 22 22 23 25 26 27 27 27 26 25 24 24 24 23 22 21 21 22 22 23 24 25 25 25 25 25 25 24 23 21 20 19 18 17 17 17 17 17 16 16 16 16 16 17 17 17 17 17 17 16 16 16 16 17 19 19 17 15 14 16 20 21 22 23 23 22 21 21 21 21 22 22 23 23
29 28 26 25 25 24 22 21 21 22 23 22 23 25 26 28 29 28 28 28 28 28 27 27 27 26 26 26 27 27 27 28 27 26 26 25 25 23 22 20 19 18 17 16 16 16 16 15 15 14 14 14 14 14 14 15 15 15 15 14 13 13 13 14 16 17 17 15 14 14 17 20 21 21 21 20 19 19 19 20 20 21 22 22 22
31 29 27 26 27 26 25 23 23 23 24 24 25 28 29 29 29 29 30 31 32 31 30 30 30 30 30 29 29 28 28 27 26 25 25 24 22 21 19 18 17 16 16 15 15 15 14 14 13 13 12 12 12 12 12 12 12 12 11 11 11 11 11 13 14 15 15 14 13 14 18 19 20 19 19 18 17 18 19 20 20 21 21 21 21
31 30 28 28 28 28 27 27 25 24 24 24 25 27 28 28 27 28 31 32 32 32 32 31 30 31 30 30 28 27 26 25 25 23 22 21 20 18 17 16 16 15 15 14 14 14 14 13 13 12 11 10 11 11 11 10 10 9 8 8 8 9 10 12 13 13 13 12 13 15 18 19 18 18 17 17 17 18 19 19 20 20 20 20 21
29 29 28 28 29 29 29 29 28 26 24 23 23 24 26 26 25 26 28 30 30 30 30 30 29 29 29 28 26 25 24 23 23 21 19 18 17 16 16 15 14 14 14 14 13 13 13 12 12 11 11 10 10 9 8 8 7 7 6 6 7 8 9 10 11 11 12 12 14 17 18 18 18 17 17 17 18 18 19 19 19 19 20 20 20
27 27 27 28 28 28 29 30 30 29 28 25 23 22 24 25 24 24 25 26 26 27 28 27 26 26 26 25 24 22 22 21 21 20 18 17 16 15 14 14 13 12 13 13 13 12 12 12 11 11 10 9 8 7 6 6 6 6 7 7 8 8 8 9 10 12 12 14 16 18 18 18 18 17 18 18 18 19 19 19 19 20 20 20 20
28 28 27 27 27 28 29 29 30 30 30 29 27 24 24 23 22 22 23 24 24 25 26 25 24 23 23 23 22 20 20 19 19 18 16 15 14 13 13 12 12 11 11 12 12 12 11 10 10 8 7 6 5 5 6 7 7 8 9 9 8 8 9 12 13 14 15 17 19 19 18 18 18 18 18 18 18 19 19 20 20 21 21 21 21
28 28 28 28 28 28 28 29 30 31 32 32 31 29 26 25 23 21 21 22 22 22 23 22 21 20 20 20 20 18 17 17 17 15 13 12 11 10 10 10 10 10 10 11 11 10 9 8 7 6 5 5 5 6 7 8 9 9 9 9 11 13 15 17 17 18 19 20 20 19 18 18 18 18 17 18 18 19 20 21 22 22 23 23 22
29 29 29 29 30 29 29 30 30 31 32 33 33 31 30 28 26 25 24 24 23 24 24 23 22 21 20 18 17 16 16 15 15 13 11 9 7 6 6 7 8 8 8 9 9 8 7 5 4 4 4 5 6 8 9 9 9 11 13 16 19 20 20 21 21 21 22 21 20 19 18 17 17 17 17 18 19 20 21 22 22 23 23 23 22
30 30 30 30 30 30 30 30 30 31 32 32 32 32 31 31 30 28 27 27 27 27 27 25 25 24 23 21 18 17 16 16 15 13 12 11 9 5 3 4 5 5 6 6 6 6 5 3 3 3 4 6 7 8 9 11 15 18 21 23 24 24 23 23 23 23 21 20 19 17 16 16 17 17 18 19 20 21 21 21 22 22 23 23 23
31 31 31 31 31 31 31 31 31 31 32 32 32 31 31 32 32 31 30 28 28 27 26 26 26 26 25 24 22 21 19 18 17 16 16 16 15 13 11 6 3 3 4 5 5 5 4 3 3 4 5 7 9 11 15 19 23 25 26 26 26 25 24 23 22 21 19 18 17 16 16 17 17 18 18 19 20 20 21 21 22 23 24 24 24
31 31 32 32 32 31 31 31 31 31 32 32 32 31 31 32 32 33 32 30 28 27 26 27 27 27 26 25 24 23 22 21 19 19 18 17 17 18 19 16 13 9 4 3 4 4 3 3 4 6 8 11 16 20 23 26 28 29 28 27 26 25 23 21 20 18 18 17 16 16 16 17 17 17 17 18 19 19 20 21 22 23 24 24 24
30 31 32 32 32 32 31 31 31 31 31 31 31 30 31 32 32 32 33 32 31 29 27 27 26 26 26 25 25 25 24 23 23 22 21 20 19 20 20 20 20 19 16 11 8 8 7 8 10 13 17 21 24 26 28 29 29 29 27 26 24 23 21 20 19 18 18 17 17 16 16 16 16 16 16 17 18 19 19 20 21 22 23 24 23
29 29 30 31 31 31 31 31 31 31 31 30 30 30 30 30 31 32 32 32 31 30 29 28 27 26 26 25 25 25 25 25 25 24 24 23 22 23 23 22 21 21 21 19 18 17 17 17 20 23 25 28 28 29 28 28 27 27 26 24 23 21 21 20 19 18 17 17 16 15 15 16 16 16 17 17 17 18 19 19 20 21 22 23 23
27 28 29 29 30 30 30 30 30 30 30 30 30 30 30 30 30 30 30 30 30 30 30 29 29 28 27 27 26 25 25 25 25 25 25 25 24 25 25 24 23 23 22 22 22 23 23 25 27 29 30 30 29 28 27 26 26 25 25 24 23 22 21 20 19 18 17 16 15 15 15 16 16 16 17 17 17 18 18 18 19 20 21 22 23
26 26 27 28 28 28 29 28 29 28 28 28 29 29 29 29 29 28 28 29 29 29 29 29 29 28 28 28 27 27 26 25 25 25 25 25 25 26 26 25 25 25 25 25 26 27 28 30 31 31 30 29 28 27 27 26 25 25 25 24 22 21 20 18 17 16 15 15 14 15 15 15 16 16 16 17 17 17 18 18 19 20 20 21 23
26 26 27 27 27 27 28 27 27 27 27 27 27 27 27 27 27 27 27 27 27 27 27 27 27 27 27 27 27 27 26 25 25 24 24 25 25 26 26 26 26 27 27 28 30 31 31 31 30 29 28 27 27 26 26 26 25 25 24 22 21 19 18 16 15 14 13 13 13 14 14 14 15 15 16 16 17 17 18 19 19 19 20 20 22
27 27 27 27 26 27 27 27 27 27 27 26 26 25 25 25 25 25 25 26 25 25 25 26 26 26 26 26 26 26 26 25 25 24 24 24 24 25 26 26 27 27 28 29 30 30 30 29 28 27 26 26 25 25 25 25 24 23 22 20 19 17 16 14 13 12 12 12 13 13 14 14 15 15 16 16 16 17 18 19 19 20 19 19 20
26 27 27 26 26 26 26 26 26 26 26 26 26 25 24 24 24 24 24 24 24 24 23 23 24 24 24 24 24 24 24 24 24 24 24 23 23 24 25 25 26 26 27 27 27 26 26 26 25 25 25 24 23 23 23 23 22 21 19 18 16 15 13 12 12 12 12 12 13 13 13 14 14 15 15 15 16 17 18 19 20 20 19 18 19
25 25 26 25 25 25 25 25 25 25 26 26 26 25 24 24 24 23 23 23 23 22 22 22 21 21 21 22 22 23 23 23 23 23 23 22 22 23 23 23 23 24 24 24 23 23 23 22 22 22 21 21 20 20 20 20 19 18 16 15 14 13 12 12 11 11 12 12 12 13 13 13 14 14 14 15 16 17 18 19 20 19 19 18 17
24 24 24 25 24 24 25 25 25 25 25 26 26 25 25 25 24 23 23 23 22 22 21 21 20 19 20 20 21 21 21 21 21 21 21 21 21 21 21 21 21 21 21 21 20 20 19 19 19 19 18 18 17 17 17 17 16 15 14 13 13 12 12 11 11 11 11 11 12 12 13 13 13 13 14 15 16 18 19 20 19 19 18 17 16
22 23 23 23 23 23 24 24 25 25 25 25 26 26 25 25 24 24 23 22 22 21 21 20 20 19 19 19 18 18 18 18 19 19 19 19 19 19 19 19 19 19 18 18 18 17 17 16 16 16 15 15 14 14 14 14 14 13 12 12 11 10 10 10 10 10 11 11 11 12 12 13 13 13 14 15 17 18 19 20 20 19 18 17 17
22 21 22 22 22 22 22 23 23 24 25 25 25 26 26 25 25 24 23 22 22 21 20 19 18 18 18 17 17 16 16 16 17 17 17 17 17 17 17 17 17 17 16 16 16 15 14 14 14 13 13 12 12 12 12 12 11 11 10 9 9 8 8 9 10 10 11 11 12 12 12 12 13 13 14 16 17 18 20 20 20 20 19 18 17
21 21 21 21 21 22 22 22 22 23 24 24 25 26 26 25 25 24 23 23 22 21 20 19 18 17 17 16 15 15 15 15 15 15 15 15 14 14 14 14 15 15 15 14 14 13 13 12 12 11 11 10 10 10 10 9 9 8 7 7 7 8 9 9 10 11 11 11 11 11 11 12 12 14 15 17 19 20 20 21 21 20 20 18 18
20 20 20 20 20 20 21 21 21 21 22 23 24 25 26 25 25 25 25 24 23 21 20 19 18 17 16 15 15 14 14 13 13 12 12 12 12 12 12 12 12 12 12 12 12 12 12 11 10 10 9 9 8 8 7 7 6 6 6 7 7 8 9 9 10 10 11 11 11 12 12 13 14 15 17 18 19 20 20 20 20 20 19 19 18
18 18 19 18 18 19 19 19 20 20 21 22 23 24 25 25 26 26 25 25 24 23 21 21 20 19 17 17 16 15 15 14 13 12 11 11 11 10 11 10 9 9 8 8 9 9 9 9 9 8 7 7 6 5 5 5 5 5 6 6 7 8 8 8 9 10 11 11 12 12 13 13 15 16 16 17 17 18 19 19 19 19 19 19 19
16 17 17 17 17 17 18 18 18 19 19 20 21 22 23 24 25 25 25 26 25 24 23 22 22 20 19 18 17 16 16 15 14 13 12 11 10 9 9 9 8 7 6 6 6 6 6 6 6 6 5 5 4 4 4 3 3 3 4 5 5 6 6 7 8 8 9 10 11 11 12 13 14 14 14 15 15 16 17 18 18 19 19 19 19
14 14 15 15 16 16 16 17 17 17 18 18 19 21 22 23 23 24 25 26 26 25 24 24 23 22 21 20 19 18 17 17 16 15 14 13 12 11 10 9 8 8 7 6 6 5 4 4 4 3 3 3 4 5 5 4 3 2 2 3 4 5 6 6 7 7 7 8 9 10 11 13 13 13 13 14 15 16 17 18 18 19 19 20 20
12 12 13 14 14 15 15 15 16 16 17 17 18 19 20 21 22 23 24 25 26 25 25 24 24 23 23 22 22 21 20 19 18 18 17 16 15 14 13 12 12 11 10 10 9 8 6 5 4 4 4 4 4 5 6 6 5 3 2 3 4 5 6 7 7 7 7 8 9 11 12 13 13 14 15 16 17 18 19 19 20 21 21 22 22
10 11 12 12 13 14 15 15 15 15 16 16 17 18 19 19 20 21 22 23 24 24 24 24 24 24 24 24 24 23 22 22 21 20 19 18 17 17 16 16 15 14 14 13 13 12 11 10 9 7 7 7 7 7 7 7 7 6 5 6 7 8 8 8 9 10 10 11 13 14 14 15 16 17 18 19 20 21 21 22 22 23 23 24 24
8 9 10 11 12 13 14 14 15 15 15 15 16 16 17 18 18 19 20 21 22 23 23 23 24 24 24 24 24 25 25 25 24 23 22 21 21 20 19 18 18 17 17 17 16 16 16 15 14 13 12 11 11 11 11 11 10 9 9 10 12 14 13 13 14 14 15 16 17 19 19 20 21 22 22 23 24 24 24 24 24 25 26 26 28
7 8 9 10 11 12 13 14 14 15 14 14 14 15 15 16 16 17 18 19 20 21 21 22 22 23 24 24 25 25 25 26 26 26 25 25 24 24 23 22 21 21 21 21 20 20 20 20 19 19 18 17 17 17 16 16 16 15 16 16 17 19 20 20 21 21 22 23 24 25 25 26 26 27 27 27 27 28 28 28 29 29 31 32 34
7 8 8 9 10 11 12 13 14 14 14 14 14 13 14 14 15 15 16 17 18 19 19 20 20 21 22 23 24 25 25 25 26 27 27 27 27 27 27 26 26 26 26 25 25 24 24 24 24 24 24 24 24 24 24 24 23 23 24 24 25 26 26 26 27 27 28 28 29 29 29 30 30 30 30 30 31 31 32 33 34 35 37 38 40
9 9 9 8 9 10 12 13 13 14 14 14 14 13 13 13 13 14 14 15 16 17 17 18 18 19 20 21 22 23 24 25 26 26 26 27 27 27 28 29 29 30 30 29 29 29 28 28 28 28 28 28 28 29 29 29 29 30 30 31 31 30 30 31 31 31 31 31 31 31 31 32 32 32 32 33 34 35 36 37 39 40 41 42 43
11 10 10 10 10 10 11 12 13 13 13 14 14 13 13 13 12 13 13 13 14 15 15 16 16 17 17 18 20 21 23 24 25 26 26 26 27 27 27 28 29 30 31 31 31 31 31 30 30 30 30 30 30 31 31 32 32 33 33 33 33 33 33 33 33 33 33 33 33 33 33 33 34 35 36 37 37 38 39 40 41 42 43 44 45
13 12 12 12 12 11 11 12 13 13 13 13 13 13 13 12 12 12 11 11 12 12 13 14 14 15 15 16 17 19 20 21 23 24 25 26 26 26 26 27 28 28 29 30 30 30 30 30 30 29 29 30 30 30 31 31 32 33 33 34 34 35 35 36 35 35 35 35 36 36 37 37 37 38 39 39 40 40 41 41 42 42 43 43 44
15 15 14 14 13 13 12 12 13 13 13 13 12 12 12 12 11 10 10 10 10 10 10 11 12 13 13 14 14 16 17 18 20 21 22 23 24 25 25 25 26 26 26 27 27 27 27 27 27 27 27 27 27 28 29 29 30 32 33 34 34 34 35 36 36 36 36 37 37 37 37 38 38 38 39 39 39 39 40 40 40 40 40 41 41
16 16 16 16 16 15 13 12 13 13 13 13 12 11 10 10 10 9 9 9 8 8 8 8 9 10 10 11 12 13 14 15 16 17 18 20 21 21 22 22 23 23 23 23 23 23 23 23 23 23 23 23 23 24 25 26 27 29 30 32 32 32 33 34 35 35 35 35 36 36 36 36 36 36 36 36 36 36 36 36 35 35 36 37 38
18 17 17 18 18 16 15 14 13 13 14 14 13 13 11 10 10 9 8 8 7 7 7 6 6 7 7 8 9 10 11 11 12 13 14 15 16 17 18 18 19 19 19 19 20 19 19 19 19 19 19 19 19 20 21 23 24 25 27 28 29 29 30 30 31 32 31 31 32 32 32 32 32 32 32 32 32 31 31 31 31 32 32 33 33
21 19 19 20 19 17 16 15 14 13 13 13 14 13 12 11 10 9 9 8 7 6 6 5 5 4 4 5 5 6 8 8 9 10 11 12 12 13 14 14 15 15 15 15 15 15 15 15 15 15 15 16 16 17 18 19 20 21 23 24 25 26 26 27 27 27 27 27 27 27 27 27 27 27 27 27 27 26 26 27 27 28 28 28 27
26 24 23 23 22 20 18 17 16 15 14 13 14 14 14 13 11 10 10 9 9 8 7 6 5 4 3 3 3 3 4 5 6 7 7 8 8 9 9 10 11 11 11 11 11 11 11 11 11 11 12 12 13 14 16 17 17 18 19 20 21 22 23 23 23 23 23 22 21 21 21 22 23 23 23 22 21 21 21 22 22 22 23 23 23
30 29 28 26 24 23 22 20 19 18 17 16 15 15 15 15 14 13 12 11 11 10 9 8 7 6 5 4 4 3 3 2 3 4 5 5 5 5 6 6 6 7 7 7 7 6 6 6 7 7 7 8 10 10 11 13 14 14 15 16 17 18 18 19 18 18 18 17 17 17 16 17 18 17 17 17 17 17 17 17 17 18 18 19 19
29 31 32 31 28 26 25 24 22 20 19 19 18 17 16 16 17 16 15 14 14 13 12 11 10 9 8 8 7 6 6 4 3 3 3 3 3 3 3 3 3 3 3 3 3 3 3 2 2 2 3 4 6 7 8 9 10 11 11 12 12 13 14 14 14 14 13 13 13 12 12 12 12 12 12 12 12 12 13 13 13 14 14 15 16
30 32 33 34 34 31 29 27 26 23 21 20 20 20 19 18 18 18 18 18 17 16 15 14 13 12 11 11 10 10 9 8 7 6 5 5 5 4 4 3 3 3 3 2 1 0 0 1 2 2 2 1 3 5 6 7 7 8 9 9 9 9 9 9 9 9 9 9 8 8 7 7 6 7 7 7 8 8 9 9 10 11 12 13 14
33 34 34 35 36 36 35 32 31 28 25 22 22 22 21 21 20 19 19 20 19 19 18 17 16 15 14 13 13 13 13 12 11 10 9 8 8 8 7 6 6 6 6 6 5 5 5 4 5 5 5 5 5 5 6 7 7 8 8 8 8 7 7 6 6 6 6 5 4 3 3 3 2 2 3 4 5 5 6 7 8 9 10 11 13
37 36 37 37 37 37 37 35 33 32 29 26 24 23 21 21 21 20 19 19 19 19 19 18 18 17 17 16 15 15 15 15 14 14 14 12 11 11 11 10 9 9 9 10 10 10 10 11 10 9 9 9 9 9 9 8 9 9 9 9 8 7 6 6 5 5 5 5 4 3 2 3 4 4 5 6 7 7 8 8 8 9 10 11 13
41 39 38 38 37 37 36 34 32 33 33 31 28 25 23 21 21 22 21 20 19 19 19 19 19 19 20 19 18 18 17 17 16 17 17 16 15 14 13 13 12 12 12 14 15 14 14 15 15 14 12 10 11 12 12 13 12 12 12 12 11 11 9 9 8 8 8 8 8 7 7 7 7 8 8 9 10 11 11 10 11 11 12 13 14
43 41 41 41 40 38 37 34 32 33 35 34 33 31 29 27 25 25 25 24 22 22 22 21 21 22 22 22 21 20 19 18 18 19 19 19 18 16 16 16 15 13 13 16 18 17 16 15 15 15 13 11 9 10 12 14 15 16 16 16 16 16 15 14 14 13 13 12 12 11 11 11 12 12 13 13 14 14 14 14 14 14 15 15 16
45 43 43 44 43 42 41 38 36 35 36 35 34 34 34 33 30 29 29 28 25 23 22 22 22 23 23 24 23 22 21 19 20 21 21 21 20 19 18 18 16 13 12 15 18 17 16 15 15 14 13 11 9 8 9 11 13 15 17 18 19 19 19 19 19 19 19 18 17 16 16 16 17 17 17 17 17 17 17 17 18 18 18 18 18
46 44 45 47 47 45 44 43 41 41 39 36 34 35 36 35 33 33 33 32 30 27 23 22 23 24 25 25 24 23 22 21 21 22 23 24 23 22 20 20 18 13 11 15 19 18 17 16 15 15 15 13 11 9 9 10 11 12 14 16 18 20 21 21 21 22 22 23 22 21 21 21 21 21 21 21 20 20 20 20 20 20 20 19 19
Wind_Direction
40 38 37 41 48 54 57 61 65 64 59 56 58 61 63 64 66 69 73 77 79 79 78 79 80 81 82 83 84 85 87 91 94 97 99 101 104 106 108 109 110 112 115 117 118 117 117 117 118 118 116 113 110 105 100 95 89 83 77 70 62 55 49 44 41 38 38 47 57 63 69 74 78 81 82 80 77 75 71 67 64 62 60 59 58
44 43 44 47 52 56 60 65 70 70 64 61 62 63 64 65 68 71 75 77 79 81 83 85 86 87 88 91 93 95 97 98 99 101 103 104 105 106 107 109 112 114 116 117 117 117 117 118 118 117 114 110 106 101 96 91 85 80 73 66 59 52 46 41 37 34 37 49 60 66 72 78 81 83 82 79 77 72 67 63 59 56 55 55 54
48 49 49 50 54 58 61 66 70 72 68 64 64 65 66 69 72 76 79 82 83 85 87 89 91 93 95 97 98 99 100 101 101 103 104 104 105 106 107 109 111 112 114 115 115 116 117 118 117 115 112 108 103 97 92 87 82 76 71 64 56 49 43 37 32 31 38 51 62 70 77 81 84 84 82 78 74 66 60 55 52 50 49 48 47
51 52 52 53 57 61 64 67 71 72 70 66 65 68 70 73 77 79 82 85 87 88 90 92 95 96 97 97 98 99 99 100 101 102 102 103 104 106 107 108 108 109 110 112 114 116 118 118 117 115 112 107 100 93 87 83 77 72 67 60 50 42 35 29 25 30 44 58 68 76 81 83 84 83 79 73 64 55 50 47 44 42 41 39 38
52 54 54 55 58 61 64 67 71 73 73 71 69 71 74 76 78 81 84 87 89 91 92 92 94 95 94 95 95 96 98 98 98 98 99 101 103 104 105 105 105 107 108 110 113 117 119 119 117 113 109 102 94 88 82 77 71 65 57 46 37 29 23 18 22 37 56 69 77 82 84 83 81 76 70 61 52 45 42 39 37 34 33 32 31
53 54 55 56 57 60 61 65 69 73 75 75 75 75 76 76 77 80 84 87 89 90 91 91 91 92 93 93 94 95 96 96 95 95 95 95 96 97 98 98 100 102 105 110 114 117 118 117 113 109 103 96 89 82 74 65 55 44 32 22 14 10 9 13 30 54 71 82 87 86 83 79 73 66 57 49 43 38 35 33 31 29 28 28 27
54 54 55 56 57 58 59 62 66 70 73 74 75 76 77 77 76 78 82 85 87 88 88 89 89 91 93 93 94 94 94 94 93 92 91 91 91 91 93 95 97 101 106 110 114 116 117 113 109 105 98 90 82 70 54 39 24 11 0 354 353 358 11 35 60 79 88 91 89 85 79 72 63 55 48 42 37 34 31 28 26 25 24 24 24
54 55 56 57 58 58 59 62 64 67 71 72 72 73 76 78 78 78 80 83 84 86 87 88 89 91 92 93 92 92 90 91 90 89 89 90 91 92 95 98 102 108 112 115 117 118 117 114 109 102 93 81 63 42 25 11 359 350 348 354 8 33 60 78 89 95 94 90 84 78 71 63 56 49 44 39 35 31 29 26 24 22 22 21 21
54 56 57 58 59 59 59 62 64 66 68 70 71 71 72 75 77 78 80 83 83 84 85 85 85 86 87 88 88 87 87 86 85 85 86 87 90 95 100 107 114 120 123 124 125 126 124 118 109 97 79 56 35 20 7 357 355 1 19 44 68 81 89 94 97 95 89 83 77 70 64 58 53 47 42 37 34 32 30 27 25 23 21 21 20
53 55 57 58 59 60 61 62 65 66 68 70 71 71 70 72 75 77 80 83 83 82 81 80 79 79 81 83 85 85 83 80 78 77 77 77 85 100 116 127 132 137 138 136 136 136 130 122 106 79 54 34 18 8 4 10 28 50 69 82 89 93 96 97 94 87 81 76 72 67 62 56 51 45 41 39 36 34 31 28 26 23 22 21 19
52 54 56 58 59 60 62 63 64 66 68 69 70 71 71 71 73 77 79 81 82 81 79 78 77 77 77 80 81 82 80 78 77 73 69 66 65 76 111 154 164 162 155 153 153 148 140 130 99 65 40 22 14 19 35 56 70 80 86 90 93 95 96 93 88 83 79 76 71 66 61 54 50 46 43 40 36 34 30 27 25 23 22 21 18
51 53 56 58 59 60 61 63 64 65 67 68 69 70 71 71 72 75 77 79 79 79 78 77 78 78 78 79 80 80 79 78 77 73 69 66 66 69 71 78 115 172 187 185 174 157 146 130 88 53 36 34 47 63 76 83 87 89 90 91 91 91 90 88 87 85 82 77 71 66 60 55 51 46 42 39 35 31 28 25 23 22 21 20 18
51 52 55 58 59 60 61 62 63 65 66 68 68 69 70 71 71 72 74 75 75 76 77 77 77 78 79 79 80 79 78 76 75 74 72 71 71 72 70 70 71 75 96 160 178 168 150 120 85 70 68 75 82 88 91 92 91 91 90 90 90 89 89 88 86 82 77 72 67 64 60 56 51 46 41 37 33 29 26 24 22 21 20 20 18
52 52 54 56 58 60 61 62 63 63 65 67 68 68 69 70 70 71 72 73 73 74 75 76 76 75 76 77 78 77 76 74 74 73 73 71 71 73 71 71 71 70 73 83 102 113 110 104 95 90 90 92 94 96 96 94 93 92 91 90 90 89 86 82 77 72 69 66 64 60 57 52 47 43 38 34 30 26 24 22 20 20 19 19 18
54 53 53 55 56 57 59 61 62 62 63 65 67 67 68 70 70 70 72 72 73 73 73 73 73 73 73 74 75 75 74 73 73 73 72 71 71 72 71 70 72 73 74 79 86 92 95 97 96 95 97 98 99 98 96 94 93 92 91 89 86 83 79 76 73 70 68 65 61 57 51 46 41 37 33 29 25 24 22 20 18 18 18 17 17
55 55 54 54 55 55 56 58 60 61 62 63 65 65 66 67 69 70 71 72 73 73 72 72 71 71 70 70 71 71 72 72 73 72 72 72 71 71 71 71 73 76 78 82 86 89 93 95 97 99 100 100 98 96 94 92 90 89 87 84 81 79 77 75 73 70 67 63 58 52 46 41 36 32 28 24 21 20 19 18 16 16 15 14 14
57 57 56 55 55 55 55 56 57 58 59 61 62 63 63 64 65 67 69 71 72 72 72 71 70 69 68 68 68 68 70 72 72 72 72 72 72 72 73 73 75 79 82 86 89 92 94 96 98 99 99 97 95 94 93 91 88 86 84 82 79 77 75 74 71 68 64 58 52 46 41 35 31 27 24 21 19 17 15 16 15 13 12 9 9
60 60 59 57 57 56 56 55 56 56 56 58 59 61 61 62 63 64 65 67 69 70 71 71 70 69 68 67 67 67 68 69 70 71 71 71 73 74 75 76 79 82 86 89 92 94 96 97 97 97 95 94 93 93 91 89 86 83 81 79 77 75 72 70 68 64 58 52 45 39 34 29 26 23 21 19 17 16 15 16 15 12 10 7 5
61 61 61 60 59 58 57 57 56 56 56 57 58 59 60 61 62 62 63 64 66 68 69 70 70 70 69 68 67 67 67 67 68 69 69 70 72 75 77 79 82 85 88 91 93 95 95 95 94 93 91 91 90 90 88 85 81 78 76 75 73 71 69 67 63 58 51 44 39 34 29 26 24 21 19 17 16 15 14 14 14 12 9 7 3
61 62 62 62 61 61 60 59 58 57 56 57 58 59 59 59 59 59 60 61 62 63 64 67 69 70 69 69 68 67 67 66 67 67 68 68 70 74 77 80 84 87 89 91 92 93 92 92 91 89 88 87 86 85 84 82 79 76 74 71 70 68 65 61 56 49 43 38 34 31 27 23 21 19 16 14 12 10 9 10 11 10 9 8 4
60 62 63 63 62 63 63 62 60 59 58 57 57 58 58 58 58 58 57 58 58 59 60 61 64 67 69 69 68 68 68 68 68 68 68 69 69 72 76 78 82 86 90 92 93 92 91 90 88 87 85 84 83 82 81 79 77 74 72 69 64 61 56 51 46 41 35 32 29 26 22 19 16 15 12 8 5 2 2 3 5 7 8 8 6
58 60 62 63 63 63 64 64 63 62 61 59 57 57 57 57 56 56 56 56 56 56 58 58 58 61 65 67 67 68 69 69 70 70 71 71 70 71 75 77 79 82 86 90 92 91 90 89 87 86 84 82 81 80 79 77 74 70 66 61 55 51 46 41 36 32 28 25 23 21 17 14 11 8 5 0 357 355 356 359 2 6 9 9 7
54 56 58 61 62 62 63 63 63 63 62 61 59 58 57 57 56 55 55 55 56 56 57 57 56 58 61 62 63 64 66 67 69 71 72 74 75 74 75 77 78 80 82 85 86 88 88 86 84 81 79 76 74 72 71 69 67 64 59 54 49 44 38 32 27 23 20 16 14 13 9 5 1 358 355 352 352 354 356 359 3 8 12 11 8
51 52 53 56 58 59 60 60 61 61 61 60 60 60 59 58 57 56 56 55 56 56 56 56 56 57 58 58 58 59 60 62 64 66 68 71 75 78 79 79 80 81 81 82 82 82 82 81 79 77 74 70 67 64 62 60 58 56 53 49 43 35 27 20 16 12 11 9 7 4 360 355 353 352 352 354 357 1 4 6 9 12 14 13 9
50 49 48 50 53 55 56 57 58 59 60 60 60 60 60 60 59 58 57 56 56 57 57 57 57 57 57 56 55 55 57 59 60 61 63 64 68 74 81 84 85 84 84 84 84 83 81 79 77 75 72 69 66 63 60 57 53 49 43 37 29 22 19 17 16 16 16 13 10 6 1 359 0 3 5 8 10 13 14 14 15 16 17 15 11
49 48 46 45 47 51 53 53 54 56 58 59 60 60 59 59 59 58 57 57 58 58 58 59 59 58 57 56 55 53 54 58 60 59 60 62 63 65 71 78 85 88 89 90 90 88 86 84 81 78 75 72 68 65 61 56 49 41 33 29 26 25 27 28 28 28 26 24 21 18 16 15 16 19 20 20 20 20 20 19 19 19 19 17 14
48 47 45 42 42 45 49 50 51 53 54 56 59 60 60 60 60 59 58 58 58 58 59 61 61 60 59 58 57 55 55 57 58 58 59 62 64 65 65 69 77 84 89 91 93 93 93 92 90 86 82 78 74 68 60 53 48 45 42 40 39 38 37 35 31 29 28 27 27 25 24 23 25 27 26 24 23 23 22 22 21 21 20 19 17
45 45 43 41 38 39 43 45 47 48 49 51 55 58 59 59 60 59 59 59 59 58 59 60 61 61 61 61 60 59 58 58 57 56 57 60 63 66 67 67 72 77 80 83 86 89 92 90 88 84 77 72 65 51 41 36 39 45 45 43 40 36 31 25 21 20 22 22 22 22 22 24 26 27 25 23 23 23 22 23 24 24 24 24 23
40 40 39 38 36 35 36 39 41 43 44 45 49 53 56 57 59 60 60 61 60 60 60 60 61 61 61 62 61 61 60 59 57 56 55 56 58 59 60 59 60 62 63 63 63 66 71 71 66 61 55 43 28 22 19 15 8 8 22 16 14 13 11 8 7 10 14 12 12 17 21 25 27 26 25 25 26 26 28 30 32 33 34 35 35
36 34 31 31 31 30 30 32 35 39 39 40 43 46 50 53 56 58 60 61 62 62 61 62 62 62 62 62 62 62 61 59 58 56 55 55 55 54 54 54 53 52 51 50 49 50 50 48 43 36 30 23 14 13 14 14 14 12 10 6 11 16 12 10 14 19 21 20 23 29 32 33 34 35 35 36 38 40 42 44 47 48 49 49 49
30 28 25 23 21 22 23 24 27 32 35 36 38 41 45 48 51 55 58 60 62 63 63 64 64 64 64 64 64 64 63 62 59 58 57 57 57 57 56 56 56 55 54 53 52 54 54 53 50 47 41 37 34 33 32 34 37 39 36 32 36 41 40 36 37 40 41 41 43 46 48 48 49 50 51 53 55 57 59 61 62 63 62 62 63
14 17 18 16 13 11 13 15 18 22 28 32 34 37 41 44 47 50 55 58 61 63 63 64 65 65 66 67 67 67 66 66 65 63 63 63 63 63 63 62 62 62 63 63 62 63 64 64 62 62 60 58 56 55 54 54 55 55 54 50 48 53 57 58 56 57 57 58 60 62 64 65 66 67 70 72 73 74 75 75 75 75 75 76 78
345 356 3 6 7 4 3 4 8 12 17 23 27 31 36 40 44 46 50 55 58 61 62 62 64 65 67 68 69 69 69 69 69 69 68 68 68 68 69 69 69 70 70 70 71 71 71 72 72 72 71 71 70 70 69 68 67 66 64 62 61 63 65 66 67 68 70 71 74 77 79 80 82 84 86 86 87 87 88 88 87 87 88 89 88
314 326 338 348 354 356 356 355 357 0 5 12 17 23 28 33 39 43 46 50 54 57 59 61 62 63 65 67 68 70 71 71 71 71 70 70 70 70 71 72 72 72 72 72 73 73 73 74 74 74 74 75 75 76 76 75 73 72 70 70 69 69 70 72 74 77 79 83 86 88 91 92 94 95 95 96 97 97 97 96 96 96 95 94 93
296 301 310 322 335 343 346 348 350 352 354 0 6 12 17 22 31 37 40 44 48 52 54 56 58 60 61 63 65 67 69 71 72 72 71 70 70 69 69 70 70 70 70 71 71 71 71 71 71 71 71 71 72 73 74 74 74 74 74 74 74 75 78 82 85 87 90 94 96 97 98 99 100 101 102 103 103 103 102 102 101 99 98 96 95
288 290 294 301 311 323 332 337 341 344 345 350 355 1 6 11 18 25 31 37 41 45 47 48 52 54 57 60 62 63 65 69 71 72 72 71 70 69 68 67 67 67 67 67 67 67 67 67 67 67 67 68 69 71 73 74 76 79 81 82 84 86 90 93 95 98 100 101 102 103 104 105 105 106 107 106 106 105 104 103 101 99 98 96 95
287 287 287 289 294 302 314 322 328 333 337 341 346 351 357 1 5 11 19 27 33 38 42 42 43 46 49 52 57 61 61 64 67 70 71 71 70 69 68 66 65 65 64 64 64 64 64 64 64 64 66 68 70 73 77 80 83 87 90 92 94 97 100 102 104 105 106 106 107 108 109 109 109 109 108 106 105 104 102 101 99 97 95 94 93
284 287 287 285 286 288 294 303 311 318 325 331 337 342 346 350 354 359 5 13 22 30 36 38 38 38 40 41 47 55 59 60 62 65 68 69 69 68 67 66 65 63 62 62 62 62 63 64 64 64 66 69 72 77 82 86 90 94 98 100 102 105 107 108 108 109 110 110 110 110 110 110 110 109 107 105 103 101 99 97 94 92 91 90 90
272 277 282 283 283 283 283 288 295 302 310 317 324 331 334 338 342 345 349 355 5 16 25 32 35 33 32 32 34 41 51 57 59 60 63 65 67 67 66 65 65 64 62 61 61 62 64 65 66 67 68 71 75 81 86 91 96 100 103 105 107 108 110 110 111 111 112 112 111 110 110 109 109 108 105 103 100 98 95 92 89 87 86 86 86
263 264 271 275 279 281 279 280 285 292 300 306 312 318 323 324 327 329 332 335 342 354 4 16 27 30 26 25 24 28 36 46 54 57 59 60 62 64 65 65 65 64 63 62 61 62 65 68 69 71 73 77 81 86 91 96 100 104 108 110 111 112 113 114 113 113 112 112 110 109 109 108 106 104 102 99 96 94 91 89 88 85 83 82 80
264 267 273 276 278 281 281 281 284 288 295 301 307 312 315 315 315 314 315 317 320 326 335 346 360 13 17 13 12 17 20 27 39 48 53 55 56 58 61 64 66 65 64 64 64 64 67 72 75 78 81 85 89 94 99 102 105 108 111 114 114 115 117 117 115 113 112 111 110 108 106 106 104 101 100 97 94 91 90 89 87 83 79 77 75
269 272 277 281 284 286 287 287 287 290 295 299 302 306 309 311 309 305 303 303 303 304 305 308 317 326 334 339 341 350 2 9 15 24 35 43 49 51 55 59 64 66 66 65 65 67 69 72 77 84 90 94 98 103 107 110 112 114 116 118 119 120 121 120 118 115 112 110 109 108 105 103 102 100 97 94 91 88 87 87 84 79 74 72 72
274 276 278 282 287 290 290 288 287 290 292 294 296 298 300 304 305 304 300 295 292 291 291 288 288 291 293 293 291 293 303 328 344 352 360 11 25 35 41 47 55 64 69 69 66 62 63 66 73 83 93 102 108 111 115 118 120 121 122 124 125 126 126 125 123 119 114 110 108 108 106 102 99 96 91 88 85 83 81 80 78 73 66 62 62
275 277 278 279 282 287 289 289 288 289 287 287 288 289 290 293 298 301 300 297 291 286 282 281 278 275 277 277 276 273 270 266 269 284 302 315 329 346 1 9 16 31 54 73 77 68 53 47 52 67 88 116 127 128 128 130 131 131 131 132 134 134 134 133 130 126 121 115 109 107 104 99 94 90 84 82 80 77 75 72 67 60 51 47 48
268 272 277 279 278 279 282 285 287 287 283 280 280 282 284 285 290 296 299 299 296 290 282 278 274 270 268 269 270 269 267 264 258 254 255 262 272 279 285 296 301 305 308 311 315 197 237 281 281 283 282 215 170 163 160 156 154 151 149 147 146 147 148 147 144 140 133 126 115 105 98 93 89 86 78 72 68 65 62 56 48 41 35 31 31
264 266 271 275 275 275 276 280 283 283 280 276 275 276 278 281 284 290 294 297 298 295 289 281 274 271 268 266 266 266 265 265 263 259 255 252 256 260 262 265 268 272 276 278 280 280 274 268 260 257 256 255 241 218 200 190 185 181 177 172 169 168 169 171 171 169 162 152 138 116 88 65 55 58 42 31 29 26 23 21 19 16 15 13 12
263 262 264 267 269 269 270 274 279 280 277 271 268 269 273 277 281 285 289 293 294 295 295 289 281 275 271 268 266 265 264 264 265 264 261 258 256 258 260 261 262 266 270 273 274 277 279 277 272 263 252 246 246 246 239 230 220 213 209 204 199 197 201 208 211 214 213 212 221 239 260 308 324 318 320 329 333 335 337 341 345 348 349 351 352
262 259 258 260 261 261 263 266 271 275 274 269 267 270 275 280 286 288 290 291 292 292 293 291 287 280 275 271 268 266 265 265 266 266 265 264 261 259 260 261 260 263 269 272 274 273 275 275 274 270 262 250 244 245 245 245 243 238 235 231 228 226 230 239 242 244 247 246 250 255 262 279 297 298 297 303 309 312 315 317 322 326 328 331 334
261 256 253 253 253 254 257 259 262 268 271 269 269 272 275 278 284 288 286 284 284 285 285 284 284 281 276 272 268 266 265 265 267 268 268 266 264 261 261 260 258 258 262 267 270 270 270 270 271 272 270 264 254 246 244 245 246 246 245 245 245 243 244 249 254 257 259 259 259 264 270 276 283 287 288 291 295 299 303 306 309 312 315 317 321
260 253 250 251 250 250 253 256 258 261 263 264 265 268 271 271 275 280 280 277 276 278 279 278 277 275 272 269 266 262 260 260 263 266 267 268 266 263 262 260 257 253 254 262 266 266 265 265 267 272 274 272 266 256 250 249 249 249 250 250 250 250 249 251 256 261 265 267 266 269 274 278 280 282 284 287 289 292 297 301 303 305 306 309 312
257 249 248 249 250 250 251 254 255 257 258 258 259 261 264 265 268 274 277 276 276 276 275 274 273 271 269 267 265 262 259 257 257 260 263 265 266 265 263 262 258 249 246 256 262 263 262 261 261 265 270 274 273 264 258 257 256 253 253 253 253 253 253 254 257 261 265 270 271 272 273 276 280 281 283 285 287 288 292 297 299 300 302 304 306
Height
10970 10968 10966 10964 10963 10962 10961 10959 10957 10955 10954 10953 10952 10950 10949 10948 10946 10945 10945 10945 10944 10944 10945 10945 10945 10946 10947 10948 10949 10949 10950 10951 10951 10952 10953 10953 10954 10955 10955 10955 10956 10957 10957 10958 10959 10960 10960 10960 10960 10960 10960 10959 10959 10958 10958 10958 10957 10957 10957 10956 10956 10955 10954 10954 10953 10952 10951 10949 10948 10947 10945 10944 10943 10942 10941 10940 10940 10939 10938 10937 10936 10935 10934 10933 10932
10972 10970 10968 10967 10965 10964 10963 10961 10959 10957 10956 10955 10954 10953 10952 10950 10949 10948 10947 10947 10947 10946 10947 10947 10948 10949 10949 10950 10951 10952 10953 10953 10954 10955 10955 10956 10956 10957 10958 10958 10959 10959 10960 10961 10961 10962 10962 10962 10962 10962 10962 10961 10961 10960 10960 10960 10959 10959 10959 10958 10957 10957 10956 10955 10954 10953 10952 10951 10950 10948 10947 10946 10945 10944 10944 10943 10942 10941 10940 10939 10938 10937 10936 10935 10933
10975 10973 10971 10969 10967 10966 10964 10963 10961 10959 10958 10958 10956 10955 10954 10952 10952 10951 10951 10950 10949 10949 10950 10950 10951 10952 10953 10953 10954 10955 10956 10956 10957 10958 10958 10959 10959 10960 10960 10961 10961 10962 10962 10963 10963 10964 10964 10964 10964 10964 10963 10963 10963 10962 10962 10962 10961 10961 10960 10960 10959 10958 10957 10956 10955 10954 10953 10952 10951 10950 10949 10948 10947 10946 10946 10945 10945 10944 10943 10942 10940 10939 10938 10937 10935
10978 10976 10975 10972 10970 10969 10967 10965 10963 10961 10960 10960 10958 10957 10956 10956 10956 10955 10954 10953 10953 10953 10954 10954 10955 10955 10956 10957 10958 10959 10959 10960 10960 10961 10961 10961 10962 10962 10963 10963 10963 10964 10964 10965 10965 10965 10965 10965 10965 10965 10965 10964 10964 10964 10964 10963 10963 10962 10962 10961 10960 10959 10959 10958 10957 10956 10954 10953 10953 10951 10950 10950 10949 10949 10948 10948 10947 10946 10945 10944 10942 10941 10940 10939 10937
10981 10980 10978 10976 10974 10972 10970 10967 10965 10964 10963 10962 10961 10961 10961 10961 10960 10959 10958 10958 10958 10958 10958 10959 10959 10959 10960 10961 10962 10962 10963 10963 10963 10964 10964 10964 10964 10964 10965 10965 10965 10966 10966 10966 10967 10967 10967 10966 10966 10966 10966 10966 10966 10965 10965 10964 10964 10963 10963 10962 10961 10960 10959 10958 10957 10956 10955 10955 10954 10953 10952 10952 10951 10951 10950 10950 10949 10948 10946 10945 10944 10943 10941 10940 10939
10984 10982 10981 10979 10977 10975 10973 10970 10968 10967 10966 10965 10965 10964 10964 10964 10964 10963 10962 10962 10962 10962 10962 10963 10963 10963 10963 10964 10965 10966 10966 10966 10966 10966 10967 10967 10967 10967 10967 10967 10967 10967 10968 10968 10968 10968 10968 10967 10967 10967 10967 10967 10967 10966 10966 10965 10965 10964 10963 10962 10962 10961 10960 10959 10958 10957 10957 10956 10955 10955 10954 10954 10954 10953 10952 10951 10950 10949 10948 10946 10945 10944 10942 10941 10939
10986 10984 10983 10981 10979 10978 10976 10974 10972 10970 10969 10968 10967 10967 10966 10966 10967 10967 10966 10966 10966 10966 10965 10966 10966 10966 10967 10967 10968 10968 10968 10968 10967 10968 10968 10968 10968 10968 10968 10968 10969 10969 10969 10969 10969 10969 10969 10969 10968 10968 10968 10968 10968 10967 10967 10966 10965 10964 10963 10962 10962 10961 10960 10959 10959 10958 10958 10958 10957 10957 10957 10956 10955 10955 10954 10952 10951 10950 10949 10947 10946 10944 10943 10941 10940
10988 10987 10985 10983 10982 10980 10979 10977 10975 10974 10972 10971 10970 10969 10969 10969 10970 10970 10969 10969 10969 10969 10969 10969 10969 10969 10969 10969 10970 10970 10970 10970 10969 10969 10970 10970 10970 10970 10970 10970 10970 10970 10970 10970 10971 10970 10970 10970 10970 10969 10969 10969 10968 10968 10967 10966 10965 10964 10963 10962 10961 10960 10960 10960 10960 10960 10960 10960 10959 10959 10959 10958 10957 10956 10955 10954 10952 10951 10950 10948 10947 10945 10944 10942 10940
10990 10989 10987 10986 10984 10983 10981 10979 10978 10977 10975 10974 10973 10972 10972 10972 10972 10972 10972 10972 10972 10972 10972 10972 10972 10972 10971 10971 10972 10972 10972 10971 10971 10971 10971 10971 10971 10971 10971 10971 10971 10971 10971 10971 10971 10971 10971 10971 10970 10970 10970 10969 10969 10968 10967 10966 10965 10964 10963 10962 10961 10961 10961 10961 10961 10962 10962 10962 10962 10961 10960 10959 10958 10957 10956 10955 10954 10952 10951 10949 10948 10946 10944 10943 10941
10992 10991 10989 10988 10986 10985 10984 10982 10981 10980 10978 10977 10976 10976 10976 10975 10975 10975 10975 10974 10974 10974 10974 10974 10974 10974 10973 10973 10974 10974 10973 10973 10973 10973 10973 10972 10972 10971 10971 10971 10971 10971 10971 10971 10972 10971 10971 10971 10971 10971 10970 10970 10969 10968 10967 10966 10965 10964 10963 10963 10962 10962 10963 10963 10964 10964 10964 10964 10963 10963 10962 10961 10960 10959 10958 10956 10955 10953 10952 10950 10949 10947 10945 10944 10942
10994 10993 10992 10990 10989 10987 10986 10985 10984 10983 10981 10981 10980 10980 10980 10979 10979 10978 10978 10977 10977 10976 10976 10976 10976 10975 10975 10975 10975 10975 10975 10975 10975 10975 10974 10973 10973 10972 10971 10971 10971 10971 10971 10971 10971 10971 10971 10971 10971 10971 10971 10970 10969 10968 10967 10966 10965 10965 10965 10965 10965 10965 10966 10966 10966 10966 10966 10965 10965 10964 10963 10963 10962 10961 10959 10958 10957 10955 10954 10952 10950 10949 10947 10945 10943
10997 10996 10994 10992 10991 10989 10988 10987 10987 10986 10985 10984 10984 10983 10983 10982 10982 10981 10980 10980 10979 10979 10979 10979 10978 10978 10978 10977 10977 10977 10977 10977 10977 10976 10975 10975 10974 10973 10972 10972 10971 10971 10971 10971 10971 10971 10972 10972 10972 10971 10971 10970 10970 10969 10968 10967 10967 10967 10967 10968 10968 10968 10969 10968 10968 10968 10967 10967 10967 10966 10965 10964 10963 10962 10961 10960 10958 10957 10955 10954 10952 10950 10948 10946 10944
11000 10998 10996 10995 10994 10992 10991 10990 10990 10989 10988 10987 10987 10987 10986 10985 10984 10983 10983 10982 10982 10982 10982 10982 10981 10981 10981 10980 10980 10980 10980 10979 10978 10978 10977 10977 10976 10974 10973 10973 10972 10971 10971 10971 10971 10972 10972 10972 10972 10972 10972 10971 10971 10970 10970 10970 10969 10970 10970 10971 10971 10971 10971 10971 10970 10970 10970 10969 10968 10968 10967 10966 10965 10964 10962 10961 10960 10958 10957 10955 10953 10951 10949 10947 10945
11002 11000 10999 10998 10996 10995 10994 10993 10992 10992 10991 10990 10990 10990 10989 10988 10987 10986 10985 10985 10985 10986 10985 10985 10985 10984 10984 10983 10983 10982 10982 10981 10980 10980 10979 10978 10977 10976 10975 10974 10973 10972 10972 10971 10972 10972 10972 10973 10972 10973 10973 10972 10973 10973 10972 10972 10972 10972 10972 10973 10973 10973 10973 10973 10973 10972 10972 10971 10971 10970 10969 10968 10966 10965 10964 10962 10961 10960 10958 10956 10954 10952 10950 10948 10946
11004 11003 11002 11000 10999 10998 10997 10996 10995 10994 10994 10993 10993 10992 10992 10991 10990 10989 10989 10988 10989 10988 10988 10988 10988 10987 10987 10986 10985 10985 10984 10983 10983 10982 10981 10980 10979 10978 10977 10976 10975 10975 10974 10974 10973 10973 10974 10974 10974 10974 10974 10975 10975 10975 10975 10975 10975 10975 10975 10975 10976 10976 10975 10975 10975 10975 10974 10973 10973 10972 10970 10969 10968 10967 10965 10964 10962 10961 10959 10958 10956 10954 10952 10950 10947
11007 11005 11004 11003 11002 11001 11000 10999 10998 10997 10996 10996 10995 10995 10994 10993 10992 10992 10992 10991 10991 10991 10991 10990 10990 10990 10989 10988 10988 10987 10986 10985 10985 10984 10983 10982 10982 10980 10979 10979 10978 10977 10977 10976 10976 10976 10976 10976 10976 10976 10977 10977 10978 10978 10978 10978 10978 10977 10977 10977 10978 10978 10978 10977 10977 10977 10976 10975 10974 10973 10972 10971 10969 10968 10967 10965 10964 10962 10961 10959 10957 10955 10953 10951 10949
11009 11008 11007 11005 11005 11004 11003 11002 11000 11000 10999 10998 10997 10996 10996 10995 10995 10995 10995 10994 10993 10993 10993 10992 10992 10991 10991 10990 10989 10988 10988 10987 10987 10986 10985 10985 10984 10982 10981 10982 10981 10980 10980 10979 10979 10979 10979 10979 10979 10980 10980 10980 10981 10981 10981 10980 10980 10980 10980 10980 10980 10980 10980 10979 10979 10978 10978 10977 10976 10975 10973 10972 10971 10969 10968 10966 10965 10963 10962 10960 10958 10956 10954 10952 10950
11012 11010 11009 11008 11007 11006 11005 11004 11003 11002 11001 11000 10999 10999 10998 10998 10998 10998 10997 10996 10995 10995 10994 10994 10993 10993 10992 10992 10991 10990 10990 10989 10989 10988 10988 10987 10986 10985 10984 10985 10984 10983 10983 10983 10982 10982 10982 10983 10983 10983 10983 10983 10984 10983 10983 10983 10983 10982 10982 10982 10982 10982 10982 10981 10981 10980 10979 10978 10977 10976 10974 10973 10972 10970 10969 10967 10966 10964 10963 10961 10959 10957 10955 10953 10951
11014 11013 11011 11011 11010 11009 11008 11006 11005 11004 11003 11002 11001 11001 11001 11001 11000 11000 10999 10998 10997 10997 10996 10995 10995 10994 10994 10993 10993 10992 10992 10991 10991 10990 10990 10990 10989 10988 10987 10987 10987 10987 10986 10986 10986 10986 10986 10986 10986 10986 10986 10986 10986 10986 10985 10985 10985 10984 10984 10984 10984 10984 10984 10983 10982 10981 10980 10979 10978 10977 10976 10974 10973 10971 10970 10968 10967 10965 10963 10962 10960 10958 10956 10954 10952
11016 11015 11014 11013 11012 11011 11010 11009 11008 11007 11006 11005 11004 11003 11003 11003 11002 11001 11001 11000 10999 10998 10998 10997 10997 10996 10996 10995 10995 10994 10994 10993 10993 10992 10992 10992 10991 10990 10990 10990 10990 10989 10989 10989 10989 10989 10989 10989 10989 10989 10989 10989 10989 10988 10987 10987 10986 10986 10986 10986 10986 10985 10985 10984 10984 10983 10982 10980 10979 10978 10976 10975 10973 10972 10970 10969 10967 10966 10964 10962 10961 10959 10957 10955 10953
11019 11017 11016 11015 11015 11014 11012 11011 11010 11009 11008 11007 11006 11005 11004 11003 11003 11002 11002 11001 11000 11000 10999 10999 10998 10998 10998 10997 10996 10996 10995 10995 10994 10994 10994 10994 10993 10993 10993 10992 10992 10992 10992 10992 10992 10992 10991 10991 10991 10991 10991 10991 10991 10990 10989 10988 10988 10988 10988 10987 10987 10987 10986 10985 10984 10983 10982 10981 10980 10978 10977 10976 10974 10973 10971 10969 10968 10966 10965 10963 10961 10960 10958 10957 10955
11021 11020 11019 11018 11017 11016 11015 11013 11012 11011 11010 11009 11008 11007 11005 11004 11003 11003 11002 11002 11001 11001 11000 11000 11000 10999 10999 10998 10998 10997 10997 10996 10996 10996 10995 10995 10995 10995 10994 10994 10995 10994 10994 10994 10994 10994 10993 10993 10993 10993 10993 10993 10992 10992 10991 10990 10990 10989 10989 10989 10988 10988 10987 10986 10985 10984 10983 10982 10980 10979 10978 10976 10975 10973 10972 10970 10968 10967 10965 10964 10962 10961 10959 10957 10956
11023 11022 11021 11020 11019 11018 11016 11015 11014 11013 11011 11010 11009 11008 11007 11005 11004 11004 11003 11003 11002 11002 11001 11001 11001 11000 11000 10999 10999 10999 10998 10998 10997 10997 10997 10996 10996 10996 10996 10996 10996 10996 10996 10996 10996 10995 10995 10995 10995 10994 10994 10994 10994 10993 10993 10992 10991 10991 10990 10989 10989 10988 10987 10987 10986 10984 10983 10982 10981 10979 10978 10976 10975 10974 10972 10970 10969 10967 10966 10964 10963 10961 10960 10958 10956
11024 11024 11023 11022 11021 11019 11018 11017 11015 11014 11013 11012 11011 11010 11008 11007 11006 11005 11005 11004 11004 11003 11003 11003 11002 11001 11001 11001 11001 11000 10999 10999 10998 10998 10998 10998 10997 10997 10997 10997 10997 10998 10997 10997 10997 10997 10997 10996 10996 10996 10996 10995 10995 10994 10994 10993 10992 10992 10991 10990 10989 10989 10988 10987 10986 10985 10984 10982 10981 10979 10978 10977 10975 10974 10972 10971 10969 10968 10966 10965 10963 10962 10960 10959 10957
11026 11025 11024 11023 11023 11021 11020 11019 11017 11016 11015 11014 11013 11012 11011 11009 11009 11008 11007 11006 11005 11005 11004 11004 11003 11003 11002 11002 11002 11001 11000 11000 10999 10999 10999 10999 10999 10998 10998 10998 10998 10998 10998 10998 10997 10997 10997 10997 10997 10996 10996 10996 10995 10995 10994 10993 10993 10992 10991 10991 10990 10989 10988 10987 10986 10985 10984 10982 10981 10979 10978 10977 10975 10974 10973 10972 10970 10969 10967 10965 10964 10962 10961 10959 10958
11027 11026 11026 11025 11024 11024 11023 11021 11020 11019 11017 11016 11015 11014 11013 11012 11011 11010 11009 11008 11007 11007 11006 11006 11005 11004 11004 11003 11003 11002 11001 11001 11001 11000 11000 11000 11000 11000 10999 10999 10999 10998 10998 10998 10997 10997 10997 10997 10997 10996 10996 10996 10995 10995 10994 10993 10993 10992 10991 10991 10990 10989 10988 10987 10986 10985 10983 10982 10981 10979 10978 10977 10976 10975 10974 10972 10971 10969 10967 10966 10964 10963 10961 10960 10958
11028 11027 11027 11026 11026 11025 11025 11024 11023 11022 11020 11019 11018 11017 11016 11015 11013 11013 11012 11011 11010 11009 11008 11007 11007 11006 11005 11004 11004 11003 11003 11002 11002 11001 11001 11001 11001 11000 11000 11000 10999 10999 10999 10998 10998 10997 10997 10997 10996 10996 10996 10995 10995 10994 10994 10993 10992 10992 10991 10990 10989 10989 10988 10987 10986 10985 10984 10982 10981 10980 10979 10978 10977 10976 10974 10973 10971 10969 10968 10966 10965 10963 10962 10961 10959
11029 11029 11028 11028 11028 11027 11027 11026 11025 11024 11023 11022 11021 11020 11019 11017 11016 11016 11015 11014 11013 11012 11011 11010 11008 11007 11007 11006 11005 11004 11004 11003 11003 11002 11002 11002 11001 11001 11001 11000 11000 10999 10999 10999 10998 10998 10997 10997 10996 10996 10995 10995 10994 10994 10993 10992 10992 10991 10991 10990 10989 10988 10987 10986 10986 10985 10984 10982 10981 10980 10979 10978 10977 10976 10975 10973 10972 10970 10968 10967 10965 10964 10963 10961 10960
11031 11030 11030 11030 11030 11029 11029 11028 11028 11027 11026 11025 11024 11023 11022 11021 11020 11019 11018 11017 11016 11015 11013 11012 11011 11009 11008 11007 11006 11006 11005 11005 11004 11004 11003 11003 11002 11002 11002 11001 11001 11000 10999 10999 10998 10998 10997 10997 10996 10996 10995 10995 10994 10993 10993 10992 10991 10991 10990 10989 10988 10988 10987 10986 10985 10984 10983 10982 10981 10980 10980 10979 10978 10976 10975 10974 10972 10971 10969 10968 10966 10965 10964 10963 10961
11032 11031 11031 11031 11031 11031 11031 11030 11030 11029 11028 11028 11027 11026 11025 11024 11023 11022 11020 11019 11018 11017 11016 11015 11013 11012 11011 11009 11008 11008 11007 11006 11006 11005 11005 11004 11004 11003 11003 11002 11001 11001 11000 10999 10999 10998 10997 10997 10997 10996 10995 10995 10994 10993 10992 10991 10991 10990 10989 10988 10988 10987 10986 10985 10984 10984 10983 10982 10981 10980 10980 10979 10978 10977 10975 10974 10973 10972 10970 10969 10968 10966 10965 10964 10963
11033 11032 11033 11032 11032 11032 11032 11032 11032 11032 11031 11030 11029 11029 11028 11027 11026 11025 11023 11022 11021 11020 11019 11018 11016 11015 11013 11012 11011 11010 11009 11008 11008 11007 11007 11006 11005 11005 11004 11003 11003 11002 11001 11000 10999 10999 10998 10997 10997 10996 10995 10995 10994 10993 10992 10991 10990 10990 10989 10988 10987 10987 10986 10985 10984 10983 10982 10982 10981 10980 10980 10979 10978 10977 10976 10975 10974 10973 10972 10971 10970 10969 10968 10966 10965
11033 11033 11033 11033 11033 11034 11034 11034 11034 11033 11033 11032 11032 11031 11031 11030 11029 11028 11027 11025 11024 11023 11022 11020 11019 11018 11016 11015 11014 11013 11012 11011 11010 11009 11009 11008 11008 11007 11006 11005 11004 11003 11002 11001 11000 11000 10999 10998 10997 10997 10996 10995 10994 10994 10993 10992 10991 10990 10989 10988 10987 10987 10986 10985 10984 10983 10982 10982 10981 10981 10980 10979 10979 10978 10978 10977 10976 10975 10974 10973 10972 10972 10970 10969 10968
11034 11034 11034 11034 11034 11035 11035 11035 11035 11035 11035 11035 11034 11033 11033 11032 11032 11031 11030 11029 11027 11026 11025 11023 11022 11021 11019 11018 11016 11015 11014 11013 11013 11012 11011 11011 11010 11009 11008 11007 11006 11005 11004 11003 11002 11001 11000 11000 10999 10998 10997 10996 10996 10995 10994 10993 10992 10991 10990 10989 10988 10987 10986 10985 10985 10984 10983 10983 10982 10982 10981 10981 10981 10980 10980 10979 10979 10978 10977 10976 10975 10975 10974 10973 10971
11035 11034 11034 11035 11035 11035 11036 11036 11036 11036 11036 11036 11036 11035 11035 11034 11034 11033 11032 11032 11030 11029 11028 11026 11025 11024 11022 11021 11019 11018 11017 11016 11015 11014 11013 11013 11012 11011 11010 11009 11008 11007 11006 11005 11004 11003 11002 11002 11001 11000 10999 10998 10997 10996 10995 10994 10993 10992 10991 10990 10989 10988 10988 10987 10986 10986 10986 10985 10985 10984 10984 10984 10983 10983 10983 10982 10982 10981 10980 10979 10979 10978 10977 10976 10974
11035 11035 11035 11035 11035 11035 11036 11036 11036 11037 11037 11037 11038 11037 11037 11036 11036 11035 11035 11034 11033 11032 11030 11029 11028 11026 11025 11024 11022 11021 11020 11019 11017 11016 11016 11015 11014 11013 11012 11012 11011 11010 11009 11008 11007 11006 11005 11004 11003 11002 11002 11001 11000 10999 10998 10997 10995 10994 10993 10993 10992 10991 10991 10990 10990 10989 10989 10988 10988 10988 10987 10987 10986 10986 10986 10985 10985 10984 10983 10982 10982 10981 10980 10979 10977
11035 11035 11035 11035 11035 11035 11036 11036 11036 11037 11037 11038 11038 11039 11038 11038 11037 11037 11037 11036 11035 11034 11033 11032 11031 11029 11028 11026 11025 11024 11023 11021 11020 11019 11018 11017 11016 11015 11015 11014 11013 11013 11012 11011 11010 11009 11008 11007 11006 11006 11005 11004 11003 11002 11001 11000 10999 10998 10997 10997 10996 10996 10995 10995 10994 10994 10993 10992 10992 10991 10991 10990 10990 10989 10989 10989 10988 10987 10986 10986 10985 10984 10983 10982 10980
11035 11035 11035 11035 11035 11035 11035 11035 11036 11036 11037 11038 11039 11039 11039 11039 11039 11038 11038 11038 11037 11037 11036 11035 11033 11032 11031 11029 11028 11027 11026 11024 11023 11022 11021 11020 11019 11018 11017 11016 11016 11015 11015 11014 11014 11013 11012 11011 11010 11009 11008 11008 11007 11006 11005 11004 11003 11002 11002 11001 11001 11000 11000 10999 10999 10998 10997 10996 10996 10995 10994 10993 10993 10993 10992 10992 10991 10990 10989 10989 10988 10987 10986 10985 10983
11034 11034 11035 11035 11034 11035 11035 11035 11035 11036 11037 11037 11038 11039 11040 11040 11040 11039 11039 11039 11039 11038 11038 11037 11036 11034 11033 11032 11030 11029 11028 11027 11026 11025 11024 11023 11021 11020 11020 11019 11018 11018 11017 11017 11016 11016 11015 11015 11014 11013 11012 11012 11011 11010 11009 11008 11008 11007 11006 11006 11005 11005 11004 11004 11003 11002 11001 11000 11000 10999 10998 10997 10996 10996 10995 10995 10994 10993 10993 10992 10991 10990 10989 10988 10986
11032 11033 11033 11034 11034 11034 11034 11034 11035 11035 11036 11037 11037 11039 11039 11040 11040 11040 11040 11039 11039 11039 11039 11038 11037 11036 11035 11034 11032 11031 11030 11029 11028 11027 11026 11025 11024 11023 11022 11021 11021 11020 11020 11019 11019 11019 11018 11018 11018 11017 11016 11015 11015 11014 11013 11012 11012 11011 11010 11010 11009 11009 11009 11008 11007 11006 11005 11005 11003 11002 11002 11001 11000 10999 10999 10998 10997 10996 10996 10995 10994 10993 10992 10990 10989
11029 11030 11031 11031 11032 11032 11033 11033 11034 11035 11035 11036 11036 11037 11038 11039 11040 11040 11040 11040 11040 11039 11039 11039 11038 11038 11036 11035 11034 11033 11032 11031 11030 11029 11028 11027 11026 11026 11025 11024 11023 11023 11022 11022 11021 11021 11021 11021 11020 11020 11019 11019 11018 11018 11017 11016 11016 11015 11014 11014 11013 11013 11012 11012 11011 11010 11009 11008 11007 11006 11005 11005 11004 11003 11002 11001 11000 10999 10998 10997 10996 10996 10994 10993 10992
11026 11027 11028 11029 11030 11030 11031 11032 11033 11034 11034 11035 11035 11036 11037 11038 11039 11039 11039 11040 11039 11039 11039 11039 11038 11038 11037 11036 11035 11034 11033 11032 11031 11030 11029 11029 11028 11027 11027 11026 11025 11025 11024 11024 11024 11024 11023 11023 11023 11023 11022 11022 11022 11021 11021 11020 11019 11019 11018 11018 11017 11017 11016 11016 11015 11014 11013 11012 11011 11010 11009 11008 11007 11006 11005 11004 11003 11001 11000 11000 10999 10998 10997 10996 10994
11024 11026 11027 11028 11029 11030 11030 11031 11032 11033 11034 11034 11034 11035 11036 11037 11038 11038 11039 11039 11039 11039 11038 11038 11038 11037 11037 11036 11036 11035 11034 11033 11032 11031 11030 11029 11029 11028 11028 11027 11027 11026 11026 11026 11026 11026 11025 11025 11025 11025 11025 11025 11024 11024 11024 11024 11023 11022 11022 11022 11021 11020 11020 11019 11018 11017 11016 11015 11014 11013 11012 11011 11010 11008 11007 11006 11005 11004 11003 11002 11001 10999 10998 10997 10996
11024 11025 11026 11028 11029 11030 11030 11030 11031 11032 11033 11034 11034 11034 11034 11035 11036 11037 11038 11038 11038 11038 11038 11037 11037 11036 11036 11036 11035 11035 11034 11033 11032 11031 11031 11030 11029 11029 11028 11028 11027 11027 11027 11027 11027 11027 11027 11027 11027 11027 11027 11027 11027 11027 11026 11026 11026 11026 11025 11025 11024 11023 11023 11022 11021 11020 11019 11018 11017 11016 11015 11014 11012 11011 11010 11008 11007 11006 11005 11003 11002 11001 11000 10998 10997
11022 11023 11024 11026 11028 11029 11029 11029 11030 11031 11032 11032 11033 11033 11033 11034 11034 11035 11036 11036 11037 11037 11037 11036 11036 11036 11035 11035 11034 11034 11033 11033 11032 11031 11031 11030 11029 11029 11028 11028 11027 11027 11027 11027 11028 11028 11028 11028 11028 11028 11029 11029 11028 11028 11028 11028 11028 11028 11027 11027 11026 11026 11025 11025 11024 11023 11022 11021 11020 11019 11018 11016 11015 11013 11012 11010 11009 11008 11006 11005 11004 11002 11001 11000 10998
11019 11021 11022 11024 11026 11027 11028 11028 11028 11029 11029 11030 11031 11032 11032 11033 11033 11033 11033 11034 11034 11035 11035 11035 11035 11035 11035 11034 11034 11033 11032 11031 11031 11030 11030 11029 11028 11028 11028 11027 11027 11027 11027 11027 11027 11028 11028 11028 11029 11029 11029 11030 11030 11030 11030 11029 11029 11029 11028 11028 11028 11027 11027 11026 11025 11025 11024 11023 11022 11021 11020 11018 11017 11015 11014 11012 11010 11009 11008 11006 11005 11003 11002 11001 10999
11017 11019 11020 11022 11023 11024 11025 11026 11026 11026 11027 11028 11029 11030 11031 11031 11031 11030 11030 11031 11031 11032 11033 11034 11034 11034 11034 11033 11033 11032 11031 11030 11029 11029 11028 11028 11027 11027 11027 11026 11026 11026 11026 11026 11026 11027 11027 11028 11028 11029 11029 11030 11030 11030 11030 11030 11030 11030 11029 11029 11028 11028 11027 11027 11026 11025 11024 11024 11023 11022 11021 11019 11018 11017 11015 11014 11012 11010 11009 11007 11006 11004 11003 11002 11000
11015 11017 11018 11019 11019 11021 11022 11023 11023 11023 11024 11025 11026 11026 11027 11028 11027 11027 11027 11028 11029 11029 11031 11032 11032 11033 11032 11032 11032 11031 11030 11029 11028 11027 11027 11026 11026 11026 11025 11025 11025 11025 11025 11025 11025 11025 11026 11026 11027 11028 11028 11029 11029 11029 11030 11030 11030 11029 11029 11029 11028 11028 11027 11026 11026 11025 11024 11024 11023 11022 11021 11020 11019 11018 11016 11015 11013 11012 11010 11008 11007 11006 11004 11003 11001
11011 11013 11014 11015 11016 11017 11018 11019 11020 11020 11020 11021 11022 11023 11024 11024 11024 11024 11024 11025 11026 11027 11028 11029 11030 11030 11030 11030 11030 11029 11029 11028 11027 11026 11025 11024 11024 11024 11024 11024 11024 11024 11023 11023 11023 11024 11024 11024 11025 11025 11026 11027 11027 11028 11028 11028 11028 11028 11028 11028 11028 11027 11026 11026 11025 11024 11023 11023 11022 11021 11020 11020 11019 11017 11016 11015 11014 11012 11011 11009 11008 11006 11005 11003 11002
11006 11008 11009 11011 11012 11012 11013 11015 11015 11016 11016 11017 11019 11020 11021 11022 11022 11022 11022 11023 11024 11024 11025 11026 11026 11027 11027 11027 11027 11027 11027 11027 11026 11025 11024 11023 11022 11022 11022 11022 11022 11023 11023 11022 11021 11022 11022 11022 11022 11023 11023 11024 11025 11025 11025 11026 11026 11026 11026 11026 11026 11025 11025 11024 11024 11023 11022 11021 11021 11020 11019 11019 11018 11017 11015 11014 11013 11012 11011 11010 11008 11007 11005 11004 11003
11001 11003 11005 11006 11008 11008 11009 11010 11011 11011 11012 11014 11016 11017 11018 11019 11019 11019 11018 11019 11020 11021 11021 11022 11023 11023 11023 11023 11023 11023 11024 11024 11024 11023 11022 11021 11020 11020 11020 11020 11020 11022 11022 11021 11020 11020 11021 11021 11021 11021 11021 11022 11022 11022 11022 11023 11023 11023 11023 11022 11022 11022 11022 11022 11021 11021 11020 11019 11019 11019 11018 11017 11016 11015 11014 11013 11012 11011 11010 11009 11008 11007 11005 11004 11003
10996 10998 11000 11001 11003 11004 11005 11005 11006 11006 11007 11009 11012 11012 11013 11014 11016 11016 11016 11015 11015 11016 11018 11019 11020 11020 11020 11020 11020 11020 11021 11021 11021 11020 11019 11018 11017 11017 11017 11017 11018 11020 11021 11019 11018 11019 11019 11019 11019 11020 11020 11020 11020 11020 11020 11020 11020 11019 11019 11019 11019 11018 11018 11019 11019 11018 11018 11017 11017 11017 11016 11015 11014 11013 11012 11011 11011 11010 11009 11008 11007 11006 11005 11004 11002